EHI
18 27 42 60 75 82 86 91 93 91 88 81 69 53 38 25 14 6 3 2 1 0 0 0 0 0 0 0 0 0 0 0 0 0 0 0 0 0 0 0 0 0 0
20 30 47 64 78 85 88 92 94 91 85 75 60 42 26 16 8 3 1 1 0 0 0 0 0 0 0 0 0 0 0 0 0 0 0 0 0 0 0 0 0 0 0
29 39 56 73 84 89 92 94 92 86 76 63 46 30 17 7 2 0 0 0 0 0 0 0 0 0 0 0 0 0 0 0 0 0 0 0 0 0 0 0 0 0 0
41 51 66 79 88 93 95 92 83 73 62 48 36 25 14 4 0 0 0 0 0 0 0 0 0 0 0 0 0 0 0 0 0 0 0 0 0 0 0 0 0 0 0
53 63 76 86 93 95 91 82 70 59 47 34 25 18 9 2 0 0 0 0 0 0 0 0 0 0 0 0 0 0 0 0 0 0 0 0 0 0 0 0 0 0 0
67 77 88 94 95 91 80 67 55 43 31 21 13 8 4 1 0 0 0 0 0 0 0 0 0 0 0 0 0 0 0 0 0 0 0 0 0 0 0 0 0 0 0
81 87 92 92 88 77 62 48 36 24 16 11 6 2 1 0 0 0 0 0 0 0 0 0 0 0 0 0 0 0 0 0 0 0 0 0 0 0 0 0 0 0 0
83 82 81 77 67 53 38 27 18 11 7 5 2 0 0 0 0 0 0 0 0 0 0 0 0 0 0 0 0 0 0 0 0 0 0 0 0 0 0 0 0 0 0
69 63 56 49 38 25 16 11 8 5 3 2 1 0 0 0 0 0 0 0 0 0 0 0 0 0 0 0 0 0 0 0 0 0 0 0 0 0 0 0 0 0 0
42 37 29 21 14 7 4 3 2 2 1 1 0 0 0 0 0 0 0 0 0 0 0 0 0 0 0 0 0 0 0 0 0 0 0 0 0 0 0 0 0 0 0
18 14 10 6 3 1 0 0 0 0 0 0 0 0 0 0 0 0 0 0 0 0 0 0 0 0 0 0 0 0 0 0 0 0 0 0 0 0 0 0 0 0 0
5 4 2 1 1 0 0 0 0 0 0 0 0 0 0 0 0 0 0 0 0 0 0 0 0 0 0 0 0 0 0 0 0 0 0 0 0 0 0 0 0 0 0
1 1 1 0 0 0 0 0 0 0 0 0 0 0 0 0 0 0 0 0 0 0 0 0 0 0 0 0 0 0 0 0 0 0 0 0 0 0 0 0 0 0 0
0 0 0 0 0 0 0 0 0 0 0 0 0 0 0 0 0 0 0 0 0 0 0 0 0 0 0 0 0 0 0 0 0 0 0 0 0 0 0 0 0 0 0
0 0 0 0 0 0 0 0 0 0 0 0 0 0 0 0 0 0 0 0 0 0 0 0 0 0 0 0 0 0 0 0 0 0 0 0 0 0 0 0 0 0 0
0 0 0 0 0 0 0 0 0 0 0 0 0 0 0 0 0 0 0 0 0 0 0 0 0 0 0 0 0 0 0 0 0 0 0 0 0 0 0 0 0 0 0
0 0 0 0 0 0 0 0 0 0 0 0 0 0 0 0 0 0 0 0 0 0 0 0 0 0 0 0 0 0 0 0 0 0 0 0 0 0 0 0 0 0 0
0 0 0 0 0 0 0 0 0 0 0 0 0 0 0 0 0 0 0 0 0 0 0 0 0 0 0 0 0 0 0 0 0 0 0 0 0 0 0 0 0 0 0
0 0 0 0 0 0 0 0 0 0 0 0 0 0 0 0 0 0 0 0 0 0 0 0 0 0 0 0 0 0 0 0 0 0 0 0 0 0 0 0 0 0 0
0 0 0 0 0 0 0 0 0 0 0 0 0 0 0 0 0 0 0 0 0 0 0 0 0 0 0 0 0 0 0 0 0 0 0 0 0 0 0 0 0 0 0
0 0 0 0 0 0 0 0 0 0 0 0 0 0 0 0 0 0 0 0 0 0 0 0 0 0 0 0 0 0 0 0 0 0 0 0 0 0 0 0 0 0 0
0 0 0 0 0 0 0 0 0 0 0 0 0 0 0 0 0 0 0 0 0 0 0 0 0 0 0 0 0 0 0 0 0 0 0 0 0 0 0 0 0 0 0
0 0 0 0 0 0 0 0 0 0 0 0 0 0 0 0 0 0 0 0 0 0 0 0 0 0 0 0 0 0 0 0 0 0 0 0 0 0 0 0 0 0 0
0 0 0 0 0 0 0 0 0 0 0 0 0 0 0 0 0 0 0 0 0 0 0 0 0 0 0 0 0 0 0 0 0 0 0 0 0 0 0 0 0 0 0
0 0 0 0 0 0 0 0 0 0 0 0 0 0 0 0 0 0 0 0 0 0 0 0 0 0 0 0 0 0 0 0 0 0 0 0 0 0 0 0 0 0 0
0 0 0 0 0 0 0 0 0 0 0 0 0 0 0 0 0 0 0 0 0 0 0 0 0 0 0 0 0 0 0 0 0 0 0 0 0 0 0 0 0 0 0
Wind_Speed
20 15 14 15 14 14 15 16 17 16 13 9 8 7 5 4 4 5 7 7 8 8 7 5 5 5 4 3 3 3 4 3 3 3 4 4 4 3 3 3 4 6 6
12 14 15 15 17 18 17 16 16 14 10 7 5 5 6 5 4 4 6 7 8 7 7 7 5 4 4 5 5 3 2 3 3 2 2 4 5 4 3 3 4 5 5
16 16 17 18 17 17 16 13 11 10 9 9 8 8 6 4 3 5 4 6 7 8 8 7 6 5 4 4 4 4 3 2 3 3 2 1 2 4 4 3 4 5 4
12 14 16 17 16 13 10 10 10 9 9 10 10 11 8 6 4 4 4 5 6 7 8 7 6 5 4 4 4 4 3 3 2 2 2 2 2 1 4 5 4 5 4
11 13 14 13 11 11 10 10 10 9 8 8 9 9 7 6 6 6 7 6 5 6 7 6 6 5 4 4 4 3 3 2 1 1 0 1 1 1 2 4 5 5 4
7 9 9 12 12 12 11 11 10 9 8 8 8 9 11 11 9 7 6 5 4 4 5 6 5 5 4 3 2 2 2 1 1 1 1 1 1 2 2 3 4 5 5
12 13 13 13 12 12 11 10 10 9 8 8 8 9 10 10 9 8 6 5 4 3 4 5 4 3 3 3 2 1 0 1 1 2 2 2 3 3 3 3 4 4 4
12 13 13 12 12 11 10 9 10 9 8 8 8 8 8 6 5 6 5 5 5 4 5 5 4 4 3 3 2 1 1 1 2 4 4 3 4 3 3 4 4 6 5
13 13 13 12 11 10 9 9 10 9 9 9 9 8 8 7 7 7 6 5 5 5 5 5 4 3 2 2 2 2 3 3 3 4 4 4 4 4 4 4 4 4 8
13 13 12 11 11 10 10 10 9 9 9 8 8 8 8 8 8 7 7 6 5 4 4 3 2 1 1 1 1 2 2 2 3 2 3 3 3 3 3 3 4 4 6
12 11 10 10 10 10 10 10 9 9 8 8 8 8 7 7 7 7 6 5 4 4 3 2 2 2 3 4 4 4 4 4 4 4 4 4 4 3 4 4 4 4 4
10 10 10 9 8 9 9 9 9 8 7 7 7 7 7 7 7 6 5 5 5 4 4 4 5 6 7 7 6 5 5 4 4 5 5 6 5 5 5 4 5 5 5
9 9 8 8 8 8 8 8 8 7 6 7 8 8 7 8 7 6 6 6 6 6 6 6 7 7 6 5 4 4 3 4 4 5 6 6 6 6 6 6 6 6 7
8 8 8 8 8 8 8 8 7 6 7 8 8 8 7 7 7 7 7 7 7 6 6 6 6 5 4 4 3 3 3 4 5 6 6 7 7 7 7 7 7 7 7
8 8 8 8 8 8 8 8 7 7 8 9 8 7 7 7 7 7 7 6 6 6 5 5 4 3 2 1 2 3 5 5 7 7 7 8 12 14 10 8 7 7 7
9 9 8 8 8 8 8 9 8 8 8 8 7 7 7 7 7 6 6 5 5 5 5 4 3 1 1 2 4 5 5 6 7 8 9 9 10 13 17 19 18 16 11
7 8 7 8 8 8 8 9 8 8 8 7 7 6 6 7 6 6 5 5 4 4 4 3 2 1 2 3 6 9 6 6 7 8 8 9 10 13 9 13 18 17 19
8 8 8 9 8 8 8 9 8 8 8 7 7 6 6 6 6 6 5 4 3 3 2 2 2 2 3 5 6 10 7 7 8 8 9 9 10 10 10 10 11 11 11
8 8 8 9 9 8 7 8 8 6 7 6 5 5 5 5 5 5 4 2 2 3 2 2 3 3 4 6 8 9 6 6 9 9 9 9 9 12 14 11 10 11 9
8 8 8 9 9 7 7 7 6 5 5 4 4 4 4 5 4 3 2 2 2 3 3 4 4 4 3 6 9 10 5 6 8 8 9 11 11 13 14 9 9 9 9
9 8 8 7 6 5 6 6 5 4 3 4 4 4 4 4 3 3 2 3 3 4 4 4 4 4 5 7 10 12 6 7 8 8 7 7 13 15 14 11 7 9 10
8 7 7 6 4 4 5 4 3 2 3 4 4 4 3 3 4 4 3 4 4 4 4 4 5 4 5 6 10 14 13 11 8 7 7 8 14 14 13 9 9 12 9
6 5 5 5 3 3 3 3 1 2 3 3 3 3 4 3 3 4 4 4 4 3 3 3 4 5 5 6 12 14 15 16 9 7 12 13 14 12 8 9 12 9 5
5 4 4 4 2 2 2 1 0 1 2 3 3 3 3 2 3 3 3 2 2 2 3 3 4 5 5 5 7 8 8 11 9 7 9 12 11 9 9 8 7 5 4
3 3 4 3 2 2 3 2 2 3 5 4 4 3 2 2 2 1 1 2 2 2 1 2 3 5 5 7 12 8 6 7 7 7 5 5 6 6 6 6 6 5 5
3 3 3 3 2 3 3 3 4 5 5 4 2 2 1 1 1 1 0 2 3 3 1 2 4 4 6 11 13 13 13 13 13 6 5 5 6 6 7 7 6 5 5
Wind_Direction
213 199 185 179 174 174 176 178 174 176 169 162 154 141 133 118 102 99 103 101 97 92 87 83 69 66 73 70 67 64 51 32 20 28 351 334 343 15 43 34 37 25 13
210 198 187 181 181 182 182 182 179 174 170 155 135 116 114 103 96 97 87 90 95 95 93 87 79 67 73 62 51 55 60 26 32 65 35 349 341 347 12 19 33 16 7
199 191 185 185 181 182 183 178 171 158 149 135 120 113 99 88 82 82 80 82 92 94 96 93 88 75 77 77 68 65 78 51 21 51 104 92 295 315 324 354 20 11 10
192 184 179 179 179 174 161 151 147 144 138 137 142 144 142 139 135 125 111 97 93 99 101 100 97 90 88 88 79 76 81 87 40 22 50 134 177 231 313 326 342 356 359
185 178 173 166 149 138 133 128 125 122 123 129 134 130 122 118 121 119 116 106 98 102 108 107 102 98 98 99 91 88 81 101 128 117 30 35 45 143 186 286 311 320 310
144 132 119 113 111 109 108 110 110 105 110 117 123 133 134 133 134 133 130 121 110 103 110 108 102 108 112 112 108 100 93 121 159 182 185 182 223 249 221 247 270 283 288
119 118 116 112 108 105 103 103 105 101 102 109 115 126 130 134 139 141 137 132 124 119 121 114 115 120 126 118 110 94 45 246 233 226 227 221 223 220 222 246 268 268 273
101 106 106 103 100 98 94 94 97 98 99 100 100 106 112 112 117 121 126 131 130 128 130 128 130 133 132 130 138 164 247 247 245 246 241 240 245 233 228 234 263 285 278
88 91 89 87 88 87 85 92 95 93 94 98 99 98 100 103 104 104 104 110 116 124 126 131 137 149 164 186 193 226 257 264 262 263 263 257 261 257 250 240 230 259 288
89 87 86 88 88 90 90 84 90 94 93 94 98 101 97 98 100 99 98 101 106 113 126 130 140 170 244 279 291 296 303 315 312 303 306 296 286 283 276 265 255 242 266
101 100 99 99 100 100 100 99 95 95 94 95 96 95 94 97 98 99 102 103 103 106 106 106 87 52 38 36 39 27 18 14 358 351 338 316 303 293 289 280 268 260 257
108 106 106 103 100 103 103 104 101 99 99 98 94 91 90 91 92 92 90 88 82 73 69 64 66 69 66 59 54 39 28 14 354 337 328 315 313 301 287 276 267 263 255
97 95 95 95 94 93 92 91 93 97 93 90 88 83 84 86 86 83 78 73 71 64 61 68 75 80 77 67 55 41 19 350 327 316 308 301 300 294 287 277 270 266 269
99 98 94 94 94 93 93 94 88 88 88 85 83 80 76 77 77 73 68 66 66 66 69 78 91 93 88 75 46 22 357 333 318 308 300 294 288 281 280 279 272 272 273
101 107 107 105 102 97 91 89 86 83 87 84 79 76 72 71 67 65 64 63 65 73 79 90 101 115 107 67 38 358 343 326 315 310 302 296 303 306 306 304 293 284 278
101 104 105 103 102 101 97 90 81 77 80 80 76 71 69 67 68 68 68 66 62 61 70 79 89 61 22 343 357 352 327 313 308 306 305 303 304 309 313 310 307 302 294
93 98 97 94 94 95 97 93 87 78 72 71 72 71 72 70 61 69 67 61 58 61 65 59 48 7 314 319 335 340 333 313 304 300 302 308 308 311 300 303 306 302 298
89 91 94 94 90 89 88 88 82 78 76 75 76 76 79 79 75 69 61 54 54 58 50 32 21 1 336 336 335 337 334 311 303 300 298 297 299 303 307 307 303 298 296
91 93 97 98 93 88 87 88 84 84 87 85 83 84 93 95 84 71 57 46 51 41 31 23 24 18 347 351 347 347 323 310 307 304 303 304 302 304 313 313 307 305 304
92 95 94 93 91 86 86 90 91 91 95 97 95 98 102 101 96 86 62 42 55 44 32 29 20 15 353 347 346 346 322 314 313 310 308 309 307 311 316 313 308 308 312
94 93 92 90 91 94 96 98 101 104 110 100 91 94 107 111 103 78 55 52 53 42 30 20 359 353 345 339 339 340 333 318 314 311 312 311 314 316 316 314 305 306 310
92 91 92 89 88 93 97 96 102 120 109 100 92 87 82 89 92 79 55 48 53 42 21 3 349 336 331 332 332 332 331 326 314 309 311 312 317 320 321 320 316 319 321
95 85 90 87 71 77 99 105 141 139 118 108 107 98 85 73 84 88 76 55 46 39 8 353 339 326 325 327 332 331 329 331 328 313 318 322 326 329 327 324 327 327 324
97 92 91 88 67 44 63 123 229 133 118 123 124 121 110 84 74 83 95 86 59 35 6 348 333 323 323 330 335 329 326 331 333 326 324 327 332 339 334 331 332 328 321
113 107 105 100 81 47 40 38 53 87 99 116 127 126 125 125 118 116 149 146 182 183 189 314 312 321 328 327 328 330 329 332 329 325 330 343 342 347 343 338 334 333 337
121 111 108 102 92 79 63 57 78 101 111 114 125 139 145 151 165 176 292 240 210 212 233 307 326 308 315 329 341 346 346 348 350 357 348 347 346 343 343 342 339 335 342